Wind_Speed
26 27 28 28 27 27 28 29 30 29 29 28 29 29 29 29 29 29 29 30 30 31 32 33 33 34 35 36 38 40 41 42 43 44 44 45 46 47 48 49 50 50 51 51
27 27 28 29 28 29 29 30 31 31 30 29 30 30 29 29 29 28 29 28 29 29 30 30 32 33 34 35 36 38 39 41 41 43 44 45 46 47 49 49 50 50 51 51
28 27 28 28 27 28 28 29 29 30 30 29 29 29 29 29 30 29 29 28 28 28 29 30 31 32 32 34 34 36 38 38 40 41 43 45 46 47 49 49 50 49 50 50
29 28 28 27 26 26 26 28 29 29 29 28 28 28 28 28 29 29 29 28 28 28 29 30 30 31 31 32 33 35 36 37 39 40 41 43 45 47 47 48 49 49 49 50
28 28 28 26 26 26 26 26 27 28 28 28 28 27 27 28 28 28 28 28 28 29 29 29 30 31 32 33 34 35 35 37 38 39 40 41 43 44 46 47 48 49 50 51
27 27 26 25 26 25 26 26 25 26 27 27 27 27 26 27 27 27 28 27 28 28 29 29 30 31 32 33 34 34 35 36 37 39 40 41 42 43 44 46 46 47 48 49
25 26 26 25 25 24 24 25 24 24 25 25 26 27 26 26 27 27 28 28 28 27 28 29 30 31 31 32 33 34 34 35 36 37 38 39 40 42 43 44 45 45 46 47
25 26 26 25 25 25 24 23 23 23 23 24 25 26 26 27 27 27 28 28 28 28 28 29 29 30 31 31 32 33 34 34 34 35 36 36 38 39 40 42 43 43 44 45
24 25 25 25 25 25 24 23 23 23 23 23 24 24 25 26 27 27 28 28 29 29 29 29 30 30 31 31 32 32 33 33 34 35 35 35 36 36 37 39 40 42 43 44
25 25 25 26 26 26 25 25 24 24 24 25 24 24 25 25 27 28 28 29 29 29 29 29 29 30 31 31 31 31 32 32 32 32 33 33 33 34 36 37 38 39 40 41
27 26 27 27 27 26 25 26 26 25 25 25 25 26 26 26 28 28 29 29 30 30 30 30 29 29 29 29 29 30 30 30 30 30 30 31 32 33 33 35 36 37 38 39
28 28 28 27 27 27 26 27 27 27 27 27 27 27 27 27 28 28 29 29 29 30 30 30 30 29 29 29 29 29 29 29 29 30 30 30 31 32 33 34 34 35 36 37
28 28 28 27 27 27 27 27 27 28 28 27 28 28 28 28 28 29 29 29 29 30 30 30 30 29 28 28 28 28 28 28 29 30 30 31 31 32 32 33 34 34 35 36
28 28 28 27 27 28 28 28 28 29 29 29 28 29 28 28 28 28 29 28 28 29 29 28 29 29 29 29 28 28 28 29 29 30 30 31 32 32 33 33 34 34 34 35
29 28 28 28 28 29 29 29 29 29 29 28 28 29 29 28 28 28 28 28 28 28 27 27 28 28 28 29 29 29 29 30 30 30 31 31 32 32 33 33 33 33 33 34
29 29 29 29 29 30 30 29 29 29 29 29 29 29 28 28 29 29 28 28 28 28 28 28 28 28 28 29 29 29 30 31 31 31 32 32 32 31 31 31 32 32 33 33
29 30 30 30 30 30 30 30 30 30 30 30 30 29 29 28 28 28 28 28 28 29 29 29 29 29 28 29 29 29 30 31 32 32 32 32 32 31 31 31 31 31 32 32
31 30 30 30 30 30 30 30 31 31 31 31 30 29 29 28 28 28 28 29 29 29 29 29 29 29 29 29 29 29 29 29 29 29 29 29 29 30 30 30 30 31 31 31
30 30 30 30 30 30 30 30 31 31 30 30 29 28 28 28 27 28 29 29 29 28 28 29 29 29 29 29 29 29 28 28 27 27 27 28 28 28 28 28 28 29 29 29
29 29 29 29 30 30 30 30 30 30 30 29 29 28 28 28 28 28 28 28 28 28 28 28 28 28 28 28 28 28 28 28 28 27 27 27 27 27 27 27 27 27 28 28
28 28 29 29 30 30 31 31 30 30 30 29 28 28 28 27 27 27 27 27 28 28 28 28 28 28 28 28 28 28 28 28 28 27 27 26 26 26 26 27 27 28 28 28
28 29 29 29 29 30 30 30 29 29 29 29 28 27 27 27 26 26 26 26 27 27 27 27 27 27 27 27 28 28 28 28 27 27 27 27 27 27 27 27 28 28 28 29
29 29 29 29 29 29 29 28 28 28 28 28 28 27 27 26 26 25 25 26 26 26 26 26 26 27 26 26 26 27 27 27 27 27 28 28 28 28 28 28 29 29 29 29
29 29 29 28 28 28 28 27 27 26 26 26 26 25 25 25 25 26 26 26 26 26 26 26 26 26 26 26 26 26 26 27 27 27 28 28 28 28 28 28 29 29 29 29
29 28 27 27 27 27 27 26 26 25 25 25 24 24 24 24 25 26 26 25 25 25 25 25 25 26 26 26 26 26 26 26 26 26 27 27 27 27 28 28 28 28 28 28
27 26 26 26 26 26 26 26 25 25 25 25 24 24 24 24 25 25 25 25 25 25 25 25 26 26 26 26 26 26 26 26 26 26 26 26 26 27 27 27 27 28 28 28
25 25 25 25 26 26 26 25 25 24 24 24 24 24 24 24 24 24 24 24 24 24 24 24 25 25 25 25 25 25 25 26 26 26 26 25 25 26 26 26 26 27 27 28
Wind_Direction
292 290 287 285 284 283 281 280 279 277 276 275 273 272 270 268 267 266 265 265 264 263 262 261 260 258 255 253 253 252 252 252 254 253 253 252 252 252 252 252 252 252 253 253
292 289 287 285 283 282 281 281 280 278 277 275 273 271 271 270 268 268 267 266 264 262 262 262 261 259 257 256 256 256 255 255 254 254 253 253 253 253 253 253 253 253 253 254
295 291 288 288 287 286 283 282 281 280 277 275 273 271 272 271 269 268 268 268 266 263 263 263 262 260 259 259 259 259 257 257 256 256 255 254 255 255 254 253 253 254 254 255
297 294 291 293 290 288 286 283 282 280 278 275 274 271 271 271 271 270 267 266 267 266 265 263 263 263 262 261 261 261 260 260 258 258 258 258 257 257 255 254 254 254 254 255
299 298 294 292 293 291 289 287 286 283 280 276 274 272 270 270 271 270 268 266 267 267 267 265 265 264 262 261 262 262 262 262 261 260 260 260 260 258 257 256 256 256 255 255
300 300 299 297 294 293 291 291 290 287 283 277 273 272 270 271 272 270 269 268 268 267 268 268 267 265 265 264 264 264 264 264 264 263 261 261 260 259 257 257 257 256 256 256
298 300 300 299 296 295 293 293 293 290 286 281 276 273 272 272 272 271 270 270 269 267 267 269 268 267 267 266 266 265 266 266 265 265 263 262 261 259 258 257 256 256 256 257
299 300 301 300 298 295 295 294 294 291 287 283 278 274 273 273 272 271 270 270 269 268 267 268 269 269 270 269 269 268 268 268 268 267 265 263 262 261 259 258 256 256 256 256
299 299 298 297 297 296 293 293 292 289 287 287 283 278 275 274 273 272 271 271 270 269 269 268 269 270 272 272 272 271 270 271 269 268 266 264 263 262 260 259 258 257 256 256
296 297 294 294 296 296 294 292 290 290 288 289 286 281 278 276 275 274 274 273 272 272 271 271 271 272 273 274 274 273 272 271 271 269 267 266 264 264 263 261 261 259 258 257
294 294 291 291 294 294 293 291 289 290 289 288 287 283 280 278 278 278 277 276 274 272 270 270 271 272 273 273 273 273 272 272 271 269 268 267 266 267 267 266 264 262 259 258
294 293 291 291 291 292 292 293 291 289 288 287 286 284 283 281 280 279 278 277 276 274 272 271 271 272 272 272 271 272 271 270 269 269 267 267 268 269 268 266 265 262 261 259
293 292 292 292 291 291 293 293 292 290 288 286 285 284 282 281 280 279 279 278 278 277 275 274 272 271 269 269 270 270 270 269 269 268 267 268 269 270 269 267 265 263 262 261
292 292 291 291 291 291 292 292 292 291 290 288 285 284 283 281 279 279 278 279 279 278 276 274 272 270 269 269 269 270 271 271 270 269 269 270 271 271 270 268 266 265 263 262
290 291 291 291 291 291 293 293 292 291 289 288 286 284 282 279 279 279 278 278 278 277 276 275 273 272 270 270 270 270 271 272 272 271 271 271 271 271 270 268 265 264 264 263
290 290 291 292 292 292 293 293 292 291 289 287 287 284 281 278 278 279 278 277 278 278 276 274 274 273 272 272 272 272 273 273 273 272 271 271 271 270 268 267 265 263 263 263
292 291 291 291 292 293 293 294 294 292 289 287 287 284 280 278 279 278 278 277 277 277 276 275 274 274 274 274 274 275 275 275 274 273 272 271 270 269 268 266 265 264 264 264
293 293 293 292 292 292 293 294 294 293 291 289 288 285 281 279 279 280 280 278 277 276 276 275 275 273 273 274 275 275 275 276 275 273 272 271 270 269 269 267 265 265 265 264
293 293 293 293 293 293 293 294 294 293 292 290 288 285 282 280 280 279 279 279 278 276 276 275 275 274 273 273 273 274 274 274 274 274 273 272 271 270 270 268 266 265 264 264
295 294 293 294 294 294 294 295 295 294 293 291 289 286 284 282 281 280 280 280 279 277 277 276 275 274 272 271 272 273 273 273 273 273 273 272 271 271 269 268 267 266 266 266
295 296 295 295 295 295 295 295 295 295 294 292 289 287 285 282 281 281 281 280 280 278 278 277 276 275 273 272 272 272 273 272 272 272 272 271 270 270 269 269 268 268 267 267
295 296 296 296 296 297 296 295 295 294 294 293 291 288 286 283 281 282 282 282 281 280 279 278 276 276 274 273 272 272 273 273 272 271 271 270 270 270 269 269 269 269 267 267
296 296 297 298 298 298 298 297 295 295 294 294 292 289 287 284 281 282 283 283 283 281 279 277 276 275 275 273 273 272 272 273 272 271 271 270 270 271 271 269 268 269 269 268
296 297 298 298 299 300 299 298 296 296 296 295 294 292 289 286 283 282 283 284 283 281 278 277 277 276 275 274 273 272 273 273 272 272 272 271 271 271 272 271 270 270 270 269
295 296 298 298 300 301 300 299 297 296 295 295 295 294 292 288 286 286 285 284 283 281 279 278 277 276 275 274 273 272 273 274 273 273 273 272 272 272 271 271 270 271 271 271
295 296 298 299 300 301 301 300 297 295 294 293 293 292 292 291 289 287 286 284 283 282 281 279 278 277 275 274 274 273 273 273 273 274 274 274 273 272 271 271 270 270 271 271
295 296 298 299 300 301 302 300 298 296 294 293 292 292 292 291 291 289 287 285 283 282 282 281 279 278 276 275 274 274 274 274 274 274 275 275 274 274 273 273 272 271 271 271
Height
5569 5567 5564 5563 5562 5559 5557 5555 5554 5554 5553 5553 5551 5549 5548 5547 5547 5546 5546 5546 5545 5544 5544 5545 5545 5546 5546 5548 5549 5551 5553 5555 5557 5559 5561 5563 5565 5568 5570 5572 5574 5577 5579 5582
5561 5559 5556 5554 5553 5551 5549 5547 5546 5544 5544 5544 5542 5541 5540 5539 5538 5538 5537 5537 5536 5536 5536 5536 5536 5536 5537 5538 5539 5540 5542 5543 5545 5546 5548 5550 5552 5554 5556 5558 5560 5562 5565 5567
5552 5550 5547 5546 5546 5543 5541 5539 5538 5535 5536 5535 5533 5532 5531 5530 5530 5529 5528 5528 5527 5527 5527 5527 5527 5527 5528 5528 5529 5530 5530 5531 5533 5534 5535 5537 5538 5540 5542 5544 5546 5548 5550 5552
5544 5542 5539 5541 5537 5535 5532 5531 5529 5527 5526 5526 5525 5524 5523 5521 5521 5520 5520 5519 5519 5518 5518 5518 5517 5517 5518 5518 5519 5519 5520 5520 5521 5522 5523 5524 5524 5526 5528 5530 5532 5534 5536 5538
5536 5533 5531 5532 5529 5526 5524 5523 5522 5519 5518 5517 5516 5515 5514 5513 5512 5512 5511 5511 5510 5510 5509 5509 5508 5508 5508 5509 5509 5509 5509 5509 5509 5509 5510 5511 5511 5512 5514 5515 5517 5519 5521 5523
5529 5525 5523 5525 5521 5518 5517 5515 5514 5511 5509 5508 5507 5506 5507 5505 5504 5503 5502 5502 5501 5500 5500 5499 5499 5499 5499 5498 5498 5498 5498 5498 5498 5497 5498 5498 5499 5499 5500 5501 5503 5504 5507 5509
5522 5518 5517 5517 5513 5510 5510 5509 5505 5503 5501 5500 5498 5498 5498 5496 5495 5494 5493 5493 5492 5491 5491 5490 5489 5489 5488 5488 5487 5487 5487 5486 5486 5485 5485 5485 5485 5485 5486 5487 5489 5491 5493 5494
5516 5512 5513 5509 5505 5504 5502 5499 5497 5495 5493 5492 5491 5489 5488 5488 5487 5486 5485 5484 5483 5482 5482 5481 5480 5479 5478 5478 5477 5476 5475 5475 5474 5473 5472 5472 5472 5472 5473 5474 5475 5477 5478 5480
5509 5508 5505 5501 5498 5496 5494 5492 5490 5488 5486 5484 5483 5481 5480 5479 5478 5477 5476 5475 5474 5473 5473 5472 5471 5470 5469 5468 5466 5465 5464 5463 5462 5462 5461 5460 5460 5460 5461 5461 5462 5464 5465 5467
5501 5500 5497 5494 5491 5488 5486 5484 5482 5480 5479 5477 5475 5474 5472 5471 5470 5468 5467 5466 5465 5464 5463 5462 5461 5460 5458 5457 5456 5455 5454 5453 5452 5451 5450 5449 5449 5449 5449 5449 5450 5451 5452 5454
5494 5492 5489 5487 5484 5481 5479 5476 5474 5472 5471 5469 5467 5465 5464 5462 5461 5459 5458 5457 5455 5454 5453 5452 5451 5450 5449 5447 5446 5445 5444 5443 5442 5441 5440 5439 5439 5439 5438 5438 5438 5439 5441 5442
5487 5484 5481 5479 5476 5473 5471 5469 5466 5464 5462 5460 5458 5457 5455 5453 5452 5450 5448 5447 5446 5444 5443 5442 5441 5440 5439 5438 5437 5435 5434 5433 5432 5431 5430 5430 5429 5429 5428 5428 5428 5428 5429 5430
5478 5475 5472 5470 5468 5465 5463 5460 5458 5456 5454 5452 5449 5447 5446 5444 5442 5441 5439 5438 5436 5434 5433 5432 5431 5430 5429 5428 5427 5426 5425 5424 5423 5422 5421 5420 5419 5418 5418 5417 5416 5417 5417 5418
5469 5466 5464 5461 5459 5457 5454 5452 5449 5447 5445 5442 5440 5438 5436 5434 5433 5431 5430 5428 5427 5425 5424 5423 5421 5420 5419 5419 5418 5417 5416 5415 5414 5413 5412 5410 5409 5408 5407 5406 5406 5406 5406 5407
5460 5457 5455 5452 5450 5448 5445 5443 5441 5438 5436 5433 5431 5428 5427 5425 5423 5422 5421 5419 5417 5416 5415 5414 5412 5411 5410 5409 5409 5408 5407 5406 5404 5403 5402 5401 5399 5398 5396 5395 5395 5396 5396 5396
5450 5448 5446 5443 5441 5439 5436 5434 5432 5429 5426 5424 5421 5419 5417 5415 5414 5412 5411 5410 5408 5407 5406 5404 5403 5402 5401 5400 5399 5398 5397 5396 5394 5393 5392 5390 5389 5387 5386 5385 5385 5385 5386 5386
5441 5439 5436 5434 5432 5429 5427 5425 5422 5420 5417 5414 5412 5409 5407 5406 5404 5403 5401 5400 5399 5397 5396 5395 5393 5392 5391 5390 5389 5388 5386 5385 5384 5382 5381 5380 5379 5378 5377 5376 5376 5376 5376 5376
5432 5429 5427 5424 5422 5420 5417 5415 5412 5410 5407 5404 5402 5399 5397 5396 5394 5393 5391 5390 5389 5387 5386 5384 5383 5382 5381 5380 5379 5378 5377 5375 5374 5372 5371 5370 5369 5368 5367 5367 5366 5366 5366 5366
5422 5420 5417 5415 5412 5410 5408 5405 5403 5400 5397 5394 5392 5389 5387 5386 5384 5383 5382 5380 5379 5377 5376 5374 5373 5372 5371 5370 5369 5369 5367 5366 5365 5363 5362 5361 5360 5359 5358 5357 5357 5357 5357 5357
5413 5411 5408 5406 5403 5401 5398 5395 5393 5390 5387 5385 5382 5380 5378 5376 5375 5373 5372 5370 5369 5367 5366 5364 5363 5362 5361 5361 5360 5359 5358 5357 5356 5354 5353 5352 5351 5350 5349 5349 5348 5348 5348 5348
5404 5402 5399 5397 5394 5391 5389 5386 5383 5381 5378 5375 5373 5370 5368 5367 5365 5364 5363 5361 5360 5358 5356 5355 5354 5353 5352 5351 5351 5350 5349 5348 5346 5345 5344 5343 5342 5342 5341 5340 5340 5340 5340 5339
5395 5393 5390 5388 5385 5382 5379 5377 5374 5371 5368 5366 5363 5361 5359 5358 5356 5355 5353 5352 5350 5349 5347 5346 5345 5343 5342 5342 5341 5340 5339 5338 5337 5336 5335 5335 5334 5333 5333 5332 5331 5331 5330 5330
5386 5384 5381 5379 5376 5373 5370 5368 5365 5362 5360 5357 5354 5352 5350 5349 5347 5346 5344 5343 5341 5340 5338 5337 5335 5335 5334 5333 5332 5331 5330 5329 5328 5327 5326 5325 5325 5324 5323 5323 5322 5321 5321 5320
5377 5375 5372 5370 5367 5364 5362 5359 5356 5354 5351 5349 5346 5344 5341 5340 5338 5337 5335 5334 5332 5331 5329 5328 5327 5326 5325 5324 5323 5322 5321 5320 5319 5318 5317 5316 5315 5315 5314 5313 5312 5312 5311 5311
5368 5366 5363 5361 5358 5356 5353 5350 5348 5345 5343 5341 5338 5336 5333 5331 5330 5328 5326 5325 5323 5322 5320 5319 5318 5317 5316 5315 5314 5313 5312 5311 5310 5309 5308 5307 5306 5305 5304 5303 5303 5302 5301 5301
5360 5357 5355 5352 5350 5347 5345 5342 5339 5337 5335 5333 5330 5328 5326 5323 5321 5319 5318 5316 5314 5313 5311 5310 5309 5308 5307 5306 5305 5304 5303 5302 5301 5300 5299 5298 5297 5296 5295 5294 5293 5292 5292 5291
5351 5349 5347 5344 5342 5339 5336 5334 5331 5329 5326 5324 5322 5320 5317 5315 5313 5311 5309 5307 5306 5304 5303 5301 5300 5299 5298 5297 5296 5295 5294 5293 5292 5291 5290 5289 5288 5286 5285 5284 5283 5283 5282 5281